Bettles, AK

3:58 PM AKDT on June 28, 2017 (GMT -0800)
Bettles

Weather History for PABT - November, 2012

Change the Weather History Date:

Monday, November 12, 2012

  Actual Average Record
Temperature  
Mean Temperature -10 °F -  
Max Temperature 1 °F 10 °F 39 °F (2014)
Min Temperature -20 °F -2 °F -42 °F (1958)
Degree Days  
Heating Degree Days 74    
Moisture  
Dew Point -16 °F    
Average Humidity 77    
Maximum Humidity 83    
Minimum Humidity 66    
Precipitation  
Precipitation 0.00 in - - ()
Snow  
Snow 0.00 in - - ()
Snow Depth 1.00 in    
Sea Level Pressure  
Sea Level Pressure 30.27 in    
Wind  
Wind Speed 3 mph (North)    
Max Wind Speed 8 mph    
Max Gust Speed -    
Visibility 10 miles    
Events      
Averages and records for this station are not official NWS values.
T = Trace of Precipitation, MM = Missing Value Source: NWS Daily Summary

Daily Weather History Graph

Daily Weather History Graph

Search for Another Location

Airport or City:

Trip Planner

Search our weather history database for the weather conditions in past years. The results will help you decide how hot, cold, wet, or windy it might be!

Date:

Astronomy

Nov. 12, 2012 Rise Set
Actual Time 9:54 AM AKST 3:44 PM AKST
Civil Twilight 8:44 AM AKST 4:54 PM AKST
Nautical Twilight 7:36 AM AKST 6:02 PM AKST
Astronomical Twilight 6:34 AM AKST 7:05 PM AKST
Moon 8:12 AM AKST (11/12) 3:09 PM AKST (11/12)
Length of Visible Light 8h 09m
Length of Day
5h 49m
Waning Crescent, 2% of the Moon is Illuminated
Nov 12
Waning Crescent
Nov 13
New
Nov 20
First Quarter
Nov 28
Full
Dec 6
Last Quarter

Hourly Weather History & Observations

Time (AKST) Temp. Windchill Dew Point Humidity Pressure Visibility Wind Dir Wind Speed Gust Speed Precip Events Conditions
12:53 AM -0.0 °F -14.2 °F -5.1 °F 79% 30.23 in 10.0 mi NNW 8.1 mph - N/A   Scattered Clouds
1:53 AM -0.0 °F -7.9 °F -5.1 °F 79% 30.25 in 10.0 mi NW 3.5 mph - N/A   Scattered Clouds
3:53 AM -5.1 °F -15.8 °F -9.0 °F 83% 30.26 in 10.0 mi North 4.6 mph - N/A   Partly Cloudy
4:53 AM -6.0 °F -14.7 °F -9.9 °F 83% 30.26 in 10.0 mi North 3.5 mph - N/A   Partly Cloudy
5:53 AM -9.0 °F -20.4 °F -13.0 °F 83% 30.26 in 10.0 mi North 4.6 mph - N/A   Clear
6:53 AM -6.0 °F -18.6 °F -11.0 °F 79% 30.26 in 10.0 mi NNW 5.8 mph - N/A   Clear
7:53 AM -8.0 °F -16.9 °F -11.9 °F 83% 30.27 in 10.0 mi NNW 3.5 mph - N/A   Clear
8:53 AM -11.0 °F -20.4 °F -16.1 °F 78% 30.27 in 10.0 mi NNE 3.5 mph - N/A   Partly Cloudy
9:53 AM -14.1 °F - -18.9 °F 79% 30.28 in 10.0 mi Calm Calm - N/A   Partly Cloudy
10:53 AM -11.9 °F -21.5 °F -17.0 °F 78% 30.29 in 10.0 mi NNE 3.5 mph - N/A   Clear
11:53 AM -8.0 °F - -15.0 °F 71% 30.29 in 10.0 mi Calm Calm - N/A   Clear
12:53 PM -7.1 °F - -11.9 °F 79% 30.29 in 10.0 mi Calm Calm - N/A   Clear
1:53 PM -5.1 °F - -11.9 °F 72% 30.28 in 10.0 mi Calm Calm - N/A   Clear
2:53 PM -6.0 °F - -11.0 °F 79% 30.27 in 10.0 mi Calm Calm - N/A   Partly Cloudy
3:53 PM -9.9 °F - -15.0 °F 78% 30.27 in 10.0 mi Calm Calm - N/A   Partly Cloudy
4:53 PM -15.0 °F - -20.0 °F 78% 30.27 in 10.0 mi Calm Calm - N/A   Clear
5:53 PM -17.0 °F - -22.0 °F 78% 30.27 in 10.0 mi Calm Calm - N/A   Clear
6:53 PM -18.9 °F - -25.1 °F 74% 30.27 in 10.0 mi Calm Calm - N/A   Clear
7:53 PM -20.0 °F - -25.1 °F 78% 30.27 in 10.0 mi Calm Calm - N/A   Clear
8:53 PM -18.9 °F - -24.0 °F 78% 30.26 in 10.0 mi Calm Calm - N/A   Clear
9:53 PM -18.0 °F -30.9 °F -23.1 °F 78% 30.27 in 10.0 mi NNE 4.6 mph - N/A   Clear
10:53 PM -16.1 °F - -20.9 °F 79% 30.26 in 10.0 mi Calm Calm - N/A   Clear
11:53 PM -14.1 °F -23.9 °F -18.9 °F 79% 30.26 in 10.0 mi North 3.5 mph - N/A   Partly Cloudy